Location: Glenmont
(42.6048°N, 73.7696°W)
Time: 08:21:15
(UTC+00:00)

Iridium 4 Rocket - Pass Details

Date: 08 September 2024
Orbit: 581 x 893 km, 86.9° (Epoch: 12 October)

Event Time Altitude Azimuth Distance (km) Brightness Sun altitude
Rises 23:35:31 0° 10° (N) 2,869 6.5 -4.3°
Reaches altitude 10° 23:38:05 10° 24° (NNE) 1,933 5.5 -4.8°
Maximum altitude 23:41:32 24° 79° (E) 1,219 4.1 -5.4°
Drops below altitude 10° 23:44:56 10° 135° (SE) 1,894 5.0 -6.0°
Sets 23:47:25 0° 149° (SSE) 2,796 6.0 -6.5°
